Time,TemperatureF,DewpointF,PressureIn,WindDirection,WindDirectionDegrees,WindSpeedMPH,WindSpeedGustMPH,Humidity,HourlyPrecipIn,Conditions,Clouds,dailyrainin,SoftwareType,DateUTC
2013-02-05 00:00:00,42.3,37.2,30.10,WSW,243,0.0,0.0,82,0.00,CLR,OVC,0.00,WeatherDisplay:10.37,2013-02-05 05:00:00,
2013-02-05 00:05:00,42.1,37.0,30.10,WSW,242,0.0,0.0,82,0.00,CLR,OVC,0.00,WeatherDisplay:10.37,2013-02-05 05:05:00,
2013-02-05 00:10:00,42.0,36.9,30.10,WSW,243,0.0,0.0,82,0.00,CLR,OVC,0.00,WeatherDisplay:10.37,2013-02-05 05:10:00,
2013-02-05 00:15:00,41.9,37.1,30.10,WSW,243,0.0,0.0,83,0.00,CLR,OVC,0.00,WeatherDisplay:10.37,2013-02-05 05:15:00,
2013-02-05 00:20:00,41.8,37.0,30.09,WSW,243,0.0,0.0,83,0.00,CLR,OVC,0.00,WeatherDisplay:10.37,2013-02-05 05:20:00,
2013-02-05 00:25:00,41.7,36.9,30.09,WSW,243,0.0,0.0,83,0.00,CLR,OVC,0.00,WeatherDisplay:10.37,2013-02-05 05:25:00,
2013-02-05 00:30:00,41.7,36.9,30.09,WSW,243,0.0,0.0,83,0.00,CLR,OVC,0.00,WeatherDisplay:10.37,2013-02-05 05:30:00,
2013-02-05 00:35:00,41.6,36.8,30.09,WSW,243,0.0,0.0,83,0.00,CLR,OVC,0.00,WeatherDisplay:10.37,2013-02-05 05:35:00,
2013-02-05 00:40:00,41.5,36.7,30.09,WSW,244,0.0,0.0,83,0.00,CLR,OVC,0.00,WeatherDisplay:10.37,2013-02-05 05:40:00,
2013-02-05 00:45:00,41.5,36.7,30.08,WSW,244,0.0,0.0,83,0.00,CLR,OVC,0.00,WeatherDisplay:10.37,2013-02-05 05:45:00,
2013-02-05 00:50:00,41.3,36.5,30.08,WSW,243,0.0,0.0,83,0.00,CLR,OVC,0.00,WeatherDisplay:10.37,2013-02-05 05:50:00,
2013-02-05 00:55:00,41.2,36.7,30.08,WSW,243,0.0,0.0,84,0.00,CLR,OVC,0.00,WeatherDisplay:10.37,2013-02-05 05:55:00,
2013-02-05 01:00:00,41.1,36.6,30.08,WSW,244,0.0,0.0,84,0.00,CLR,OVC,0.00,WeatherDisplay:10.37,2013-02-05 06:00:00,
2013-02-05 01:05:00,40.9,36.4,30.08,WSW,243,0.0,0.0,84,0.00,CLR,OVC,0.00,WeatherDisplay:10.37,2013-02-05 06:05:00,
2013-02-05 01:10:00,40.9,36.4,30.08,WSW,243,0.0,0.0,84,0.00,CLR,OVC,0.00,WeatherDisplay:10.37,2013-02-05 06:10:00,
2013-02-05 01:15:00,40.8,36.3,30.07,WSW,243,0.0,0.0,84,0.00,CLR,OVC,0.00,WeatherDisplay:10.37,2013-02-05 06:15:00,
2013-02-05 01:20:00,40.6,36.1,30.07,WSW,243,0.0,0.0,84,0.00,CLR,OVC,0.00,WeatherDisplay:10.37,2013-02-05 06:20:00,
2013-02-05 01:25:00,40.5,36.3,30.07,WSW,244,0.0,0.0,85,0.00,CLR,OVC,0.00,WeatherDisplay:10.37,2013-02-05 06:25:00,
2013-02-05 01:30:00,40.4,36.2,30.07,WSW,243,0.0,0.0,85,0.00,CLR,OVC,0.00,WeatherDisplay:10.37,2013-02-05 06:30:00,
2013-02-05 01:35:00,40.4,36.2,30.06,WSW,244,0.0,0.0,85,0.00,CLR,OVC,0.00,WeatherDisplay:10.37,2013-02-05 06:35:00,
2013-02-05 01:40:00,40.3,36.1,30.06,WSW,243,0.0,0.0,85,0.00,CLR,OVC,0.00,WeatherDisplay:10.37,2013-02-05 06:40:00,
2013-02-05 01:45:00,40.2,36.1,30.06,WSW,243,0.0,0.0,85,0.00,CLR,OVC,0.00,WeatherDisplay:10.37,2013-02-05 06:45:00,
2013-02-05 01:50:00,40.1,36.0,30.06,WSW,243,0.0,0.0,85,0.00,CLR,OVC,0.00,WeatherDisplay:10.37,2013-02-05 06:50:00,
2013-02-05 01:55:00,40.0,35.9,30.05,WSW,243,0.0,0.0,85,0.00,CLR,OVC,0.00,WeatherDisplay:10.37,2013-02-05 06:55:00,
2013-02-05 02:00:00,39.8,35.7,30.04,WSW,243,0.0,0.0,85,0.00,CLR,OVC,0.00,WeatherDisplay:10.37,2013-02-05 07:00:00,
2013-02-05 02:05:00,39.7,35.9,30.04,WSW,243,0.0,0.0,86,0.00,CLR,OVC,0.00,WeatherDisplay:10.37,2013-02-05 07:05:00,
2013-02-05 02:10:00,39.6,35.8,30.03,WSW,243,0.0,0.0,86,0.00,CLR,OVC,0.00,WeatherDisplay:10.37,2013-02-05 07:10:00,
2013-02-05 02:15:00,39.5,35.7,30.02,WSW,243,0.0,0.0,86,0.00,CLR,OVC,0.00,WeatherDisplay:10.37,2013-02-05 07:15:00,
2013-02-05 02:20:00,39.5,35.7,30.02,WSW,243,0.0,0.0,86,0.00,CLR,OVC,0.00,WeatherDisplay:10.37,2013-02-05 07:20:00,
2013-02-05 02:25:00,39.4,35.6,30.02,WSW,243,0.0,0.0,86,0.00,CLR,OVC,0.00,WeatherDisplay:10.37,2013-02-05 07:25:00,
2013-02-05 02:30:00,39.4,35.6,30.02,WSW,243,0.0,0.0,86,0.00,CLR,OVC,0.00,WeatherDisplay:10.37,2013-02-05 07:30:00,
2013-02-05 02:35:00,39.3,35.5,30.02,WSW,243,0.0,0.0,86,0.00,CLR,OVC,0.00,WeatherDisplay:10.37,2013-02-05 07:35:00,
2013-02-05 02:40:00,39.2,35.4,30.02,WSW,243,0.0,0.0,86,0.00,CLR,OVC,0.00,WeatherDisplay:10.37,2013-02-05 07:40:00,
2013-02-05 02:45:00,38.9,35.4,30.03,WSW,243,0.0,0.0,87,0.00,CLR,OVC,0.00,WeatherDisplay:10.37,2013-02-05 07:45:00,
2013-02-05 02:50:00,38.9,35.4,30.03,WSW,243,0.0,0.0,87,0.00,CLR,OVC,0.00,WeatherDisplay:10.37,2013-02-05 07:50:00,
2013-02-05 02:55:00,39.1,35.6,30.03,WSW,243,0.0,0.0,87,0.00,CLR,OVC,0.00,WeatherDisplay:10.37,2013-02-05 07:55:00,
2013-02-05 03:00:00,39.1,35.6,30.02,WSW,243,0.0,0.0,87,0.00,CLR,OVC,0.00,WeatherDisplay:10.37,2013-02-05 08:00:00,
2013-02-05 03:05:00,39.0,35.5,30.01,WSW,243,0.0,0.0,87,0.00,CLR,OVC,0.00,WeatherDisplay:10.37,2013-02-05 08:05:00,
2013-02-05 03:10:00,39.0,35.5,30.01,WSW,243,0.0,0.0,87,0.00,CLR,OVC,0.00,WeatherDisplay:10.37,2013-02-05 08:10:00,
2013-02-05 03:15:00,39.0,35.5,30.02,WSW,243,0.0,0.0,87,0.00,CLR,OVC,0.00,WeatherDisplay:10.37,2013-02-05 08:15:00,
2013-02-05 03:20:00,38.9,35.4,30.02,WSW,243,0.0,0.0,87,0.00,CLR,OVC,0.00,WeatherDisplay:10.37,2013-02-05 08:20:00,
2013-02-05 03:25:00,38.9,35.6,30.02,WSW,243,0.0,0.0,88,0.00,CLR,OVC,0.00,WeatherDisplay:10.37,2013-02-05 08:25:00,
2013-02-05 03:30:00,38.7,35.5,30.03,WSW,243,0.0,0.0,88,0.00,CLR,OVC,0.00,WeatherDisplay:10.37,2013-02-05 08:30:00,
2013-02-05 03:35:00,38.5,35.0,30.03,WSW,243,0.0,0.0,87,0.00,CLR,OVC,0.00,WeatherDisplay:10.37,2013-02-05 08:35:00,
2013-02-05 03:40:00,38.3,34.8,30.03,WSW,243,0.0,0.0,87,0.00,CLR,OVC,0.00,WeatherDisplay:10.37,2013-02-05 08:40:00,
2013-02-05 03:45:00,38.3,35.1,30.04,WNW,296,0.0,0.0,88,0.00,CLR,OVC,0.00,WeatherDisplay:10.37,2013-02-05 08:45:00,
2013-02-05 03:50:00,38.2,35.0,30.04,WNW,296,1.0,0.0,88,0.00,CLR,OVC,0.00,WeatherDisplay:10.37,2013-02-05 08:50:00,
2013-02-05 03:55:00,38.4,34.9,30.04,WNW,303,1.1,0.0,87,0.00,CLR,OVC,0.00,WeatherDisplay:10.37,2013-02-05 08:55:00,
2013-02-05 04:00:00,38.8,35.3,30.04,WNW,303,0.0,0.0,87,0.00,CLR,OVC,0.00,WeatherDisplay:10.37,2013-02-05 09:00:00,
2013-02-05 04:05:00,38.7,34.9,30.04,WNW,303,0.0,0.0,86,0.00,CLR,OVC,0.00,WeatherDisplay:10.37,2013-02-05 09:05:00,
2013-02-05 04:10:00,38.7,35.2,30.05,WNW,303,1.1,0.0,87,0.00,CLR,OVC,0.00,WeatherDisplay:10.37,2013-02-05 09:10:00,
2013-02-05 04:15:00,38.7,35.2,30.05,WNW,303,0.0,0.0,87,0.00,CLR,OVC,0.00,WeatherDisplay:10.37,2013-02-05 09:15:00,
2013-02-05 04:20:00,38.9,35.4,30.05,WNW,302,0.0,0.0,87,0.00,CLR,OVC,0.00,WeatherDisplay:10.37,2013-02-05 09:20:00,
2013-02-05 04:25:00,39.1,35.6,30.05,WNW,302,0.0,0.0,87,0.00,CLR,OVC,0.00,WeatherDisplay:10.37,2013-02-05 09:25:00,
2013-02-05 04:30:00,39.3,35.8,30.05,WNW,302,0.0,0.0,87,0.00,CLR,OVC,0.00,WeatherDisplay:10.37,2013-02-05 09:30:00,
2013-02-05 04:35:00,39.4,35.9,30.04,WNW,302,0.0,0.0,87,0.00,CLR,OVC,0.00,WeatherDisplay:10.37,2013-02-05 09:35:00,
2013-02-05 04:40:00,39.6,36.3,30.04,WNW,302,0.0,0.0,88,0.00,CLR,OVC,0.00,WeatherDisplay:10.37,2013-02-05 09:40:00,
2013-02-05 04:45:00,39.8,36.5,30.04,WNW,302,0.0,0.0,88,0.00,CLR,OVC,0.00,WeatherDisplay:10.37,2013-02-05 09:45:00,
2013-02-05 04:50:00,39.9,36.3,30.04,WNW,302,0.0,0.0,87,0.00,CLR,OVC,0.00,WeatherDisplay:10.37,2013-02-05 09:50:00,
2013-02-05 04:55:00,39.9,36.3,30.04,WNW,302,0.0,0.0,87,0.00,CLR,OVC,0.00,WeatherDisplay:10.37,2013-02-05 09:55:00,
2013-02-05 05:00:00,39.8,36.2,30.04,WNW,302,0.0,0.0,87,0.00,CLR,OVC,0.00,WeatherDisplay:10.37,2013-02-05 10:00:00,
2013-02-05 05:05:00,39.8,36.2,30.04,WNW,302,0.0,0.0,87,0.00,CLR,OVC,0.00,WeatherDisplay:10.37,2013-02-05 10:05:00,
2013-02-05 05:10:00,39.5,36.0,30.05,WNW,302,0.0,0.0,87,0.00,CLR,OVC,0.00,WeatherDisplay:10.37,2013-02-05 10:10:00,
2013-02-05 05:15:00,39.5,36.0,30.05,WNW,302,0.0,0.0,87,0.00,CLR,OVC,0.00,WeatherDisplay:10.37,2013-02-05 10:15:00,
2013-02-05 05:20:00,39.5,36.0,30.05,WNW,302,0.0,0.0,87,0.00,CLR,OVC,0.00,WeatherDisplay:10.37,2013-02-05 10:20:00,
2013-02-05 05:25:00,39.5,36.0,30.05,WNW,302,0.0,0.0,87,0.00,CLR,OVC,0.00,WeatherDisplay:10.37,2013-02-05 10:25:00,
2013-02-05 05:30:00,39.5,36.0,30.05,WNW,302,0.0,0.0,87,0.00,CLR,OVC,0.00,WeatherDisplay:10.37,2013-02-05 10:30:00,
2013-02-05 05:35:00,39.5,36.0,30.05,WNW,302,0.0,0.0,87,0.00,CLR,OVC,0.00,WeatherDisplay:10.37,2013-02-05 10:35:00,
2013-02-05 05:40:00,39.5,36.0,30.05,WNW,302,0.0,0.0,87,0.00,CLR,OVC,0.00,WeatherDisplay:10.37,2013-02-05 10:40:00,
2013-02-05 05:45:00,39.5,36.0,30.05,WNW,302,0.0,0.0,87,0.00,CLR,OVC,0.00,WeatherDisplay:10.37,2013-02-05 10:45:00,
2013-02-05 05:50:00,39.5,36.0,30.05,WNW,302,0.0,0.0,87,0.00,CLR,OVC,0.00,WeatherDisplay:10.37,2013-02-05 10:50:00,
2013-02-05 05:54:00,39.5,36.0,30.05,WNW,302,0.0,0.0,87,0.00,CLR,OVC,0.00,WeatherDisplay:10.37,2013-02-05 10:54:00,
2013-02-05 05:55:00,39.5,36.0,30.05,WNW,302,0.0,0.0,87,0.00,CLR,OVC,0.00,WeatherDisplay:10.37,2013-02-05 10:55:00,
2013-02-05 06:00:00,39.5,36.0,30.05,WNW,302,0.0,0.0,87,0.00,CLR,OVC,0.00,WeatherDisplay:10.37,2013-02-05 11:00:00,
2013-02-05 06:06:00,39.5,36.0,30.05,WNW,302,0.0,0.0,87,0.00,CLR,OVC,0.00,WeatherDisplay:10.37,2013-02-05 11:06:00,
2013-02-05 08:31:00,44.2,40.3,30.11,WNW,302,0.0,0.0,86,0.00,CLR,OVC,0.00,WeatherDisplay:10.37,2013-02-05 13:31:00,
2013-02-05 08:36:00,45.3,40.1,30.11,WNW,302,0.0,0.0,82,0.00,CLR,OVC,0.00,WeatherDisplay:10.37,2013-02-05 13:36:00,
2013-02-05 08:41:00,46.5,39.7,30.11,WNW,296,0.0,0.0,77,0.00,CLR,OVC,0.00,WeatherDisplay:10.37,2013-02-05 13:41:00,
2013-02-05 08:46:00,47.4,39.5,30.11,ENE,70,0.0,0.0,74,0.00,CLR,OVC,0.00,WeatherDisplay:10.37,2013-02-05 13:46:00,
2013-02-05 08:51:00,48.4,39.1,30.12,ENE,70,1.1,0.0,70,0.00,CLR,OVC,0.00,WeatherDisplay:10.37,2013-02-05 13:51:00,
2013-02-05 08:56:00,49.5,39.4,30.12,NE,39,0.0,0.0,68,0.00,CLR,OVC,0.00,WeatherDisplay:10.37,2013-02-05 13:56:00,
2013-02-05 09:01:00,50.1,39.6,30.12,NE,39,0.0,0.0,67,0.00,CLR,OVC,0.00,WeatherDisplay:10.37,2013-02-05 14:01:00,
2013-02-05 09:06:00,50.8,39.8,30.12,NE,39,0.0,0.0,66,0.00,CLR,OVC,0.00,WeatherDisplay:10.37,2013-02-05 14:06:00,
2013-02-05 09:11:00,51.5,39.7,30.12,NE,40,0.0,0.0,64,0.00,CLR,OVC,0.00,WeatherDisplay:10.37,2013-02-05 14:11:00,
2013-02-05 09:16:00,52.2,40.0,30.12,NE,40,0.0,0.0,63,0.00,CLR,OVC,0.00,WeatherDisplay:10.37,2013-02-05 14:16:00,
2013-02-05 09:21:00,52.8,39.3,30.12,NE,40,0.0,0.0,60,0.00,CLR,OVC,0.00,WeatherDisplay:10.37,2013-02-05 14:21:00,
2013-02-05 09:26:00,53.8,39.8,30.12,NE,40,0.0,0.0,59,0.00,CLR,OVC,0.00,WeatherDisplay:10.37,2013-02-05 14:26:00,
2013-02-05 09:31:00,54.4,40.8,30.12,NNE,25,1.1,1.1,60,0.00,CLR,OVC,0.00,WeatherDisplay:10.37,2013-02-05 14:31:00,
2013-02-05 09:36:00,55.3,40.8,30.12,NNE,27,1.1,1.1,58,0.00,CLR,OVC,0.00,WeatherDisplay:10.37,2013-02-05 14:36:00,
2013-02-05 09:41:00,56.1,41.5,30.12,NNE,18,1.1,1.1,58,0.00,CLR,OVC,0.00,WeatherDisplay:10.37,2013-02-05 14:41:00,
2013-02-05 09:46:00,57.0,41.0,30.12,NNW,333,2.3,2.3,55,0.00,CLR,OVC,0.00,WeatherDisplay:10.37,2013-02-05 14:46:00,
2013-02-05 09:51:00,57.7,41.2,30.12,NNE,31,1.1,1.1,54,0.00,CLR,OVC,0.00,WeatherDisplay:10.37,2013-02-05 14:51:00,
2013-02-05 09:56:00,58.3,41.7,30.12,NNE,14,1.0,1.0,54,0.00,CLR,OVC,0.00,WeatherDisplay:10.37,2013-02-05 14:56:00,
2013-02-05 10:01:00,58.9,43.2,30.12,NE,36,0.0,0.0,56,0.00,CLR,OVC,0.00,WeatherDisplay:10.37,2013-02-05 15:01:00,
2013-02-05 10:06:00,59.1,43.9,30.12,NNW,348,0.0,0.0,57,0.00,CLR,OVC,0.00,WeatherDisplay:10.37,2013-02-05 15:06:00,
2013-02-05 10:11:00,59.5,43.3,30.12,East,87,2.3,2.3,55,0.00,CLR,OVC,0.00,WeatherDisplay:10.37,2013-02-05 15:11:00,
2013-02-05 10:16:00,59.9,44.2,30.12,NE,54,0.0,0.0,56,0.00,CLR,OVC,0.00,WeatherDisplay:10.37,2013-02-05 15:16:00,
2013-02-05 10:21:00,60.3,44.5,30.12,NE,54,0.0,0.0,56,0.00,CLR,OVC,0.00,WeatherDisplay:10.37,2013-02-05 15:21:00,
2013-02-05 10:26:00,60.7,44.4,30.12,NNW,339,2.3,2.3,55,0.00,CLR,OVC,0.00,WeatherDisplay:10.37,2013-02-05 15:26:00,
2013-02-05 10:31:00,61.2,44.4,30.12,South,182,1.1,1.1,54,0.00,CLR,OVC,0.00,WeatherDisplay:10.37,2013-02-05 15:31:00,
2013-02-05 10:36:00,62.1,44.8,30.12,South,180,1.1,1.1,53,0.00,CLR,OVC,0.00,WeatherDisplay:10.37,2013-02-05 15:36:00,
2013-02-05 10:41:00,62.5,45.1,30.12,South,182,1.1,1.1,53,0.00,CLR,OVC,0.00,WeatherDisplay:10.37,2013-02-05 15:41:00,
2013-02-05 10:46:00,63.0,45.1,30.12,South,173,2.3,2.3,52,0.00,CLR,OVC,0.00,WeatherDisplay:10.37,2013-02-05 15:46:00,
2013-02-05 10:51:00,63.4,44.9,30.12,South,170,1.1,0.0,51,0.00,CLR,OVC,0.00,WeatherDisplay:10.37,2013-02-05 15:51:00,
2013-02-05 10:56:00,63.7,45.2,30.12,SSE,164,1.0,0.0,51,0.00,CLR,OVC,0.00,WeatherDisplay:10.37,2013-02-05 15:56:00,
2013-02-05 11:01:00,63.8,44.8,30.12,East,90,1.1,1.1,50,0.00,CLR,OVC,0.00,WeatherDisplay:10.37,2013-02-05 16:01:00,
2013-02-05 11:06:00,63.9,45.4,30.12,SSE,151,1.1,0.0,51,0.00,CLR,OVC,0.00,WeatherDisplay:10.37,2013-02-05 16:06:00,
2013-02-05 11:11:00,64.4,44.8,30.11,SSW,192,2.0,2.0,49,0.00,CLR,OVC,0.00,WeatherDisplay:10.37,2013-02-05 16:11:00,
2013-02-05 11:16:00,65.1,45.5,30.11,West,267,0.0,0.0,49,0.00,CLR,OVC,0.00,WeatherDisplay:10.37,2013-02-05 16:16:00,
2013-02-05 11:21:00,65.6,45.4,30.11,South,189,2.3,2.3,48,0.00,CLR,OVC,0.00,WeatherDisplay:10.37,2013-02-05 16:21:00,
2013-02-05 11:26:00,65.9,46.2,30.11,SW,227,1.1,1.1,49,0.00,CLR,OVC,0.00,WeatherDisplay:10.37,2013-02-05 16:26:00,
2013-02-05 11:31:00,66.1,46.4,30.11,NE,52,2.3,2.3,49,0.00,CLR,OVC,0.00,WeatherDisplay:10.37,2013-02-05 16:31:00,
2013-02-05 11:36:00,66.4,47.2,30.11,West,263,2.3,2.3,50,0.00,CLR,OVC,0.00,WeatherDisplay:10.37,2013-02-05 16:36:00,
2013-02-05 11:41:00,66.7,47.5,30.10,WSW,250,2.3,2.3,50,0.00,CLR,OVC,0.00,WeatherDisplay:10.37,2013-02-05 16:41:00,
2013-02-05 11:46:00,67.0,48.3,30.10,NW,309,2.3,2.3,51,0.00,CLR,OVC,0.00,WeatherDisplay:10.37,2013-02-05 16:46:00,
2013-02-05 11:51:00,67.4,49.2,30.10,NNW,342,3.4,3.4,52,0.00,CLR,OVC,0.00,WeatherDisplay:10.37,2013-02-05 16:51:00,
2013-02-05 11:56:00,67.7,49.4,30.10,WSW,253,2.3,2.3,52,0.00,CLR,OVC,0.00,WeatherDisplay:10.37,2013-02-05 16:56:00,
2013-02-05 12:01:00,67.8,50.0,30.09,WSW,251,1.1,1.1,53,0.00,CLR,OVC,0.00,WeatherDisplay:10.37,2013-02-05 17:01:00,
2013-02-05 12:06:00,68.1,50.8,30.09,WSW,246,1.1,1.1,54,0.00,CLR,OVC,0.00,WeatherDisplay:10.37,2013-02-05 17:06:00,
2013-02-05 12:11:00,68.7,52.4,30.09,SW,236,3.4,3.4,56,0.00,CLR,OVC,0.00,WeatherDisplay:10.37,2013-02-05 17:11:00,
2013-02-05 12:16:00,69.2,51.8,30.09,South,191,2.3,2.3,54,0.00,CLR,OVC,0.00,WeatherDisplay:10.37,2013-02-05 17:16:00,
2013-02-05 12:21:00,69.2,50.8,30.09,SW,222,2.3,2.3,52,0.00,CLR,OVC,0.00,WeatherDisplay:10.37,2013-02-05 17:21:00,
2013-02-05 12:26:00,69.4,51.5,30.09,NW,315,2.3,2.3,53,0.00,CLR,OVC,0.00,WeatherDisplay:10.37,2013-02-05 17:26:00,
2013-02-05 12:31:00,69.2,50.8,30.09,WNW,284,3.4,3.4,52,0.00,CLR,OVC,0.00,WeatherDisplay:10.37,2013-02-05 17:31:00,
2013-02-05 12:36:00,69.0,51.7,30.08,SW,230,2.3,2.3,54,0.00,CLR,OVC,0.00,WeatherDisplay:10.37,2013-02-05 17:36:00,
2013-02-05 12:41:00,69.3,51.4,30.08,SSW,206,2.3,2.3,53,0.00,CLR,OVC,0.00,WeatherDisplay:10.37,2013-02-05 17:41:00,
2013-02-05 12:46:00,69.4,50.5,30.08,WSW,257,2.3,2.3,51,0.00,CLR,OVC,0.00,WeatherDisplay:10.37,2013-02-05 17:46:00,
2013-02-05 12:51:00,69.5,50.6,30.08,South,187,3.4,3.4,51,0.00,CLR,OVC,0.00,WeatherDisplay:10.37,2013-02-05 17:51:00,
2013-02-05 12:56:00,70.0,50.5,30.08,WSW,247,1.1,1.1,50,0.00,CLR,OVC,0.00,WeatherDisplay:10.37,2013-02-05 17:56:00,
2013-02-05 13:01:00,70.1,51.1,30.08,West,281,1.1,1.1,51,0.00,CLR,OVC,0.00,WeatherDisplay:10.37,2013-02-05 18:01:00,
2013-02-05 13:06:00,70.5,51.5,30.07,South,173,2.3,2.3,51,0.00,CLR,OVC,0.00,WeatherDisplay:10.37,2013-02-05 18:06:00,
2013-02-05 13:11:00,70.5,51.5,30.07,WSW,244,2.0,2.0,51,0.00,CLR,OVC,0.00,WeatherDisplay:10.37,2013-02-05 18:11:00,
2013-02-05 13:16:00,70.6,51.1,30.06,WNW,298,3.4,3.4,50,0.00,CLR,OVC,0.00,WeatherDisplay:10.37,2013-02-05 18:16:00,
2013-02-05 13:21:00,70.6,51.1,30.06,WNW,301,2.3,2.3,50,0.00,CLR,OVC,0.00,WeatherDisplay:10.37,2013-02-05 18:21:00,
2013-02-05 13:26:00,70.6,51.1,30.06,SW,215,3.4,3.4,50,0.00,CLR,OVC,0.00,WeatherDisplay:10.37,2013-02-05 18:26:00,
2013-02-05 13:31:00,70.9,50.8,30.05,South,177,3.4,3.4,49,0.00,CLR,OVC,0.00,WeatherDisplay:10.37,2013-02-05 18:31:00,
2013-02-05 13:34:00,71.1,51.0,30.05,SSE,165,3.4,3.4,49,0.00,CLR,OVC,0.00,WeatherDisplay:10.37,2013-02-05 18:34:00,
2013-02-05 13:36:00,71.1,51.0,30.05,SSE,165,3.4,3.4,49,0.00,CLR,OVC,0.00,WeatherDisplay:10.37,2013-02-05 18:36:00,
2013-02-05 13:41:00,71.1,51.0,30.05,SSE,165,3.4,3.4,49,0.00,CLR,OVC,0.00,WeatherDisplay:10.37,2013-02-05 18:41:00,
2013-02-05 13:46:00,71.1,50.4,30.05,West,275,4.0,4.0,48,0.00,CLR,OVC,0.00,WeatherDisplay:10.37,2013-02-05 18:46:00,
2013-02-05 13:51:00,71.0,50.3,30.04,NNE,21,2.3,2.3,48,0.00,CLR,OVC,0.00,WeatherDisplay:10.37,2013-02-05 18:51:00,
2013-02-05 13:56:00,71.0,50.9,30.03,NNE,22,1.1,1.1,49,0.00,CLR,OVC,0.00,WeatherDisplay:10.37,2013-02-05 18:56:00,
2013-02-05 14:01:00,71.3,51.7,30.03,West,263,0.0,0.0,50,0.00,CLR,OVC,0.00,WeatherDisplay:10.37,2013-02-05 19:01:00,
2013-02-05 14:06:00,71.8,51.0,30.03,SW,236,2.3,2.3,48,0.00,CLR,OVC,0.00,WeatherDisplay:10.37,2013-02-05 19:06:00,
2013-02-05 14:11:00,72.2,50.8,30.03,SSW,212,2.3,2.3,47,0.00,CLR,OVC,0.00,WeatherDisplay:10.37,2013-02-05 19:11:00,
2013-02-05 14:16:00,72.3,50.4,30.03,SSE,168,4.6,4.6,46,0.00,CLR,OVC,0.00,WeatherDisplay:10.37,2013-02-05 19:16:00,
2013-02-05 14:21:00,72.1,50.8,30.03,South,181,2.3,2.3,47,0.00,CLR,OVC,0.00,WeatherDisplay:10.37,2013-02-05 19:21:00,
2013-02-05 14:26:00,72.2,50.8,30.03,SSE,155,2.3,2.3,47,0.00,CLR,OVC,0.00,WeatherDisplay:10.37,2013-02-05 19:26:00,
2013-02-05 14:31:00,72.3,51.5,30.02,South,175,3.4,3.4,48,0.00,CLR,OVC,0.00,WeatherDisplay:10.37,2013-02-05 19:31:00,
2013-02-05 14:36:00,72.3,51.5,30.02,South,185,3.0,3.0,48,0.00,CLR,OVC,0.00,WeatherDisplay:10.37,2013-02-05 19:36:00,
2013-02-05 14:41:00,72.3,52.1,30.02,SSE,153,3.4,3.4,49,0.00,CLR,OVC,0.00,WeatherDisplay:10.37,2013-02-05 19:41:00,
2013-02-05 14:46:00,72.6,51.8,30.03,SSW,198,3.4,3.4,48,0.00,CLR,OVC,0.00,WeatherDisplay:10.37,2013-02-05 19:46:00,
2013-02-05 14:51:00,72.8,52.0,30.03,South,189,3.4,3.4,48,0.00,CLR,OVC,0.00,WeatherDisplay:10.37,2013-02-05 19:51:00,
2013-02-05 14:56:00,73.1,51.7,30.03,South,180,3.4,3.4,47,0.00,CLR,OVC,0.00,WeatherDisplay:10.37,2013-02-05 19:56:00,
2013-02-05 15:01:00,73.1,51.7,30.03,SSW,206,1.1,1.2,47,0.00,CLR,OVC,0.00,WeatherDisplay:10.37,2013-02-05 20:01:00,
2013-02-05 15:06:00,73.1,51.7,30.03,SSE,166,3.0,3.0,47,0.00,CLR,OVC,0.00,WeatherDisplay:10.37,2013-02-05 20:06:00,
2013-02-05 15:11:00,73.2,51.2,30.03,SSE,166,3.0,3.0,46,0.00,CLR,OVC,0.00,WeatherDisplay:10.37,2013-02-05 20:11:00,
2013-02-05 15:16:00,73.3,51.8,30.02,South,173,3.4,3.4,47,0.00,CLR,OVC,0.00,WeatherDisplay:10.37,2013-02-05 20:16:00,
2013-02-05 15:21:00,73.2,51.2,30.02,South,174,3.0,3.0,46,0.00,CLR,OVC,0.00,WeatherDisplay:10.37,2013-02-05 20:21:00,
2013-02-05 15:26:00,73.4,51.4,30.02,SW,222,2.3,2.3,46,0.00,CLR,OVC,0.00,WeatherDisplay:10.37,2013-02-05 20:26:00,
2013-02-05 15:31:00,73.3,51.3,30.02,South,177,1.1,1.1,46,0.00,CLR,OVC,0.00,WeatherDisplay:10.37,2013-02-05 20:31:00,
2013-02-05 15:36:00,73.4,51.4,30.02,SW,229,2.3,2.3,46,0.00,CLR,OVC,0.00,WeatherDisplay:10.37,2013-02-05 20:36:00,
2013-02-05 15:41:00,73.4,51.4,30.02,NW,319,2.3,0.0,46,0.00,CLR,OVC,0.00,WeatherDisplay:10.37,2013-02-05 20:41:00,
2013-02-05 15:46:00,73.3,51.3,30.02,SSW,193,3.4,3.4,46,0.00,CLR,OVC,0.00,WeatherDisplay:10.37,2013-02-05 20:46:00,
2013-02-05 15:51:00,73.4,51.4,30.01,SSE,162,2.3,2.3,46,0.00,CLR,OVC,0.00,WeatherDisplay:10.37,2013-02-05 20:51:00,
2013-02-05 15:56:00,73.3,51.8,30.02,South,178,1.1,1.1,47,0.00,CLR,OVC,0.00,WeatherDisplay:10.37,2013-02-05 20:56:00,
2013-02-05 16:01:00,73.3,51.8,30.02,South,177,2.3,2.3,47,0.00,CLR,OVC,0.00,WeatherDisplay:10.37,2013-02-05 21:01:00,
2013-02-05 16:06:00,73.3,51.8,30.02,SW,236,0.0,0.0,47,0.00,CLR,OVC,0.00,WeatherDisplay:10.37,2013-02-05 21:06:00,
2013-02-05 16:11:00,73.2,51.8,30.02,North,357,2.3,2.3,47,0.00,CLR,OVC,0.00,WeatherDisplay:10.37,2013-02-05 21:11:00,
2013-02-05 16:16:00,73.1,51.7,30.02,SW,227,1.0,0.0,47,0.00,CLR,OVC,0.00,WeatherDisplay:10.37,2013-02-05 21:16:00,
2013-02-05 16:21:00,73.1,51.1,30.02,NW,305,1.1,0.0,46,0.00,CLR,OVC,0.00,WeatherDisplay:10.37,2013-02-05 21:21:00,
2013-02-05 16:26:00,72.9,51.5,30.02,North,5,0.0,0.0,47,0.00,CLR,OVC,0.00,WeatherDisplay:10.37,2013-02-05 21:26:00,
2013-02-05 16:31:00,72.8,51.4,30.02,NNE,16,1.1,0.0,47,0.00,CLR,OVC,0.00,WeatherDisplay:10.37,2013-02-05 21:31:00,
2013-02-05 16:36:00,72.8,51.4,30.02,NW,326,1.1,1.1,47,0.00,CLR,OVC,0.00,WeatherDisplay:10.37,2013-02-05 21:36:00,
2013-02-05 16:41:00,72.8,51.4,30.02,NNW,331,0.0,0.0,47,0.00,CLR,OVC,0.00,WeatherDisplay:10.37,2013-02-05 21:41:00,
2013-02-05 16:46:00,72.7,51.3,30.02,SSW,193,1.1,1.1,47,0.00,CLR,OVC,0.00,WeatherDisplay:10.37,2013-02-05 21:46:00,
2013-02-05 16:51:00,72.8,51.4,30.02,South,189,1.1,1.1,47,0.00,CLR,OVC,0.00,WeatherDisplay:10.37,2013-02-05 21:51:00,
2013-02-05 16:56:00,72.8,51.4,30.02,South,191,1.1,1.1,47,0.00,CLR,OVC,0.00,WeatherDisplay:10.37,2013-02-05 21:56:00,
2013-02-05 17:01:00,72.7,51.9,30.02,South,190,1.1,1.1,48,0.00,CLR,OVC,0.00,WeatherDisplay:10.37,2013-02-05 22:01:00,
2013-02-05 17:06:00,72.6,51.8,30.02,South,189,1.1,1.1,48,0.00,CLR,OVC,0.00,WeatherDisplay:10.37,2013-02-05 22:06:00,
2013-02-05 17:11:00,72.5,51.1,30.02,South,172,3.4,3.4,47,0.00,CLR,OVC,0.00,WeatherDisplay:10.37,2013-02-05 22:11:00,
2013-02-05 17:16:00,72.4,51.6,30.02,South,173,1.1,1.1,48,0.00,CLR,OVC,0.00,WeatherDisplay:10.37,2013-02-05 22:16:00,
2013-02-05 17:21:00,72.2,52.0,30.02,South,173,0.0,0.0,49,0.00,CLR,OVC,0.00,WeatherDisplay:10.37,2013-02-05 22:21:00,
2013-02-05 17:26:00,71.9,51.7,30.02,South,173,0.0,0.0,49,0.00,CLR,OVC,0.00,WeatherDisplay:10.37,2013-02-05 22:26:00,
2013-02-05 17:31:00,71.5,51.9,30.01,South,173,0.0,0.0,50,0.00,CLR,OVC,0.00,WeatherDisplay:10.37,2013-02-05 22:31:00,
2013-02-05 17:36:00,71.2,52.1,30.02,South,173,0.0,0.0,51,0.00,CLR,OVC,0.00,WeatherDisplay:10.37,2013-02-05 22:36:00,
2013-02-05 17:41:00,70.7,51.7,30.02,South,173,0.0,0.0,51,0.00,CLR,OVC,0.00,WeatherDisplay:10.37,2013-02-05 22:41:00,
2013-02-05 17:46:00,70.3,51.8,30.02,South,173,0.0,0.0,52,0.00,CLR,OVC,0.00,WeatherDisplay:10.37,2013-02-05 22:46:00,
2013-02-05 17:51:00,70.1,52.7,30.02,South,173,0.0,0.0,54,0.00,CLR,OVC,0.00,WeatherDisplay:10.37,2013-02-05 22:51:00,
2013-02-05 17:56:00,69.7,53.3,30.02,South,173,0.0,0.0,56,0.00,CLR,OVC,0.00,WeatherDisplay:10.37,2013-02-05 22:56:00,
2013-02-05 18:01:00,69.3,52.4,30.02,South,173,0.0,0.0,55,0.00,CLR,OVC,0.00,WeatherDisplay:10.37,2013-02-05 23:01:00,
2013-02-05 18:06:00,69.0,52.6,30.02,South,173,0.0,0.0,56,0.00,CLR,OVC,0.00,WeatherDisplay:10.37,2013-02-05 23:06:00,
2013-02-05 18:11:00,68.5,52.7,30.02,South,173,0.0,0.0,57,0.00,CLR,OVC,0.00,WeatherDisplay:10.37,2013-02-05 23:11:00,
2013-02-05 18:16:00,68.0,53.1,30.02,South,173,0.0,0.0,59,0.00,CLR,OVC,0.00,WeatherDisplay:10.37,2013-02-05 23:16:00,
2013-02-05 18:21:00,67.5,53.1,30.02,South,173,0.0,0.0,60,0.00,CLR,OVC,0.00,WeatherDisplay:10.37,2013-02-05 23:21:00,
2013-02-05 18:26:00,66.8,52.9,30.02,South,173,0.0,0.0,61,0.00,CLR,OVC,0.00,WeatherDisplay:10.37,2013-02-05 23:26:00,
2013-02-05 18:31:00,66.3,52.9,30.02,South,173,0.0,0.0,62,0.00,CLR,OVC,0.00,WeatherDisplay:10.37,2013-02-05 23:31:00,
2013-02-05 18:36:00,65.7,53.2,30.02,South,173,0.0,0.0,64,0.00,CLR,OVC,0.00,WeatherDisplay:10.37,2013-02-05 23:36:00,
2013-02-05 18:41:00,65.1,52.6,30.02,South,173,0.0,0.0,64,0.00,CLR,OVC,0.00,WeatherDisplay:10.37,2013-02-05 23:41:00,
2013-02-05 18:46:00,64.6,52.6,30.02,South,173,0.0,0.0,65,0.00,CLR,OVC,0.00,WeatherDisplay:10.37,2013-02-05 23:46:00,
2013-02-05 18:49:00,64.3,52.3,30.02,South,173,0.0,0.0,65,0.00,CLR,OVC,0.00,WeatherDisplay:10.37,2013-02-05 23:49:00,
2013-02-05 18:51:00,64.3,52.3,30.02,South,173,0.0,0.0,65,0.00,CLR,OVC,0.00,WeatherDisplay:10.37,2013-02-05 23:51:00,
2013-02-05 18:56:00,64.3,52.3,30.02,South,173,0.0,0.0,65,0.00,CLR,OVC,0.00,WeatherDisplay:10.37,2013-02-05 23:56:00,
2013-02-05 19:02:00,63.2,52.5,30.02,South,173,0.0,0.0,68,0.00,CLR,OVC,0.00,WeatherDisplay:10.37,2013-02-06 00:02:00,
2013-02-05 19:07:00,62.8,52.1,30.02,South,173,0.0,0.0,68,0.00,CLR,OVC,0.00,WeatherDisplay:10.37,2013-02-06 00:07:00,
2013-02-05 19:12:00,62.3,51.6,30.02,South,173,0.0,0.0,68,0.00,CLR,OVC,0.00,WeatherDisplay:10.37,2013-02-06 00:12:00,
2013-02-05 19:17:00,62.1,51.8,30.02,South,173,0.0,0.0,69,0.00,CLR,OVC,0.00,WeatherDisplay:10.37,2013-02-06 00:17:00,
2013-02-05 19:22:00,61.9,51.6,30.03,South,173,0.0,0.0,69,0.00,CLR,OVC,0.00,WeatherDisplay:10.37,2013-02-06 00:22:00,
2013-02-05 19:27:00,61.7,51.8,30.02,South,173,0.0,0.0,70,0.00,CLR,OVC,0.00,WeatherDisplay:10.37,2013-02-06 00:27:00,
2013-02-05 19:32:00,61.4,51.9,30.03,South,173,1.1,0.0,71,0.00,CLR,OVC,0.00,WeatherDisplay:10.37,2013-02-06 00:32:00,
2013-02-05 19:37:00,61.2,52.1,30.03,South,173,0.0,0.0,72,0.00,CLR,OVC,0.00,WeatherDisplay:10.37,2013-02-06 00:37:00,
2013-02-05 19:42:00,60.9,51.8,30.03,South,173,1.1,0.0,72,0.00,CLR,OVC,0.00,WeatherDisplay:10.37,2013-02-06 00:42:00,
2013-02-05 19:47:00,60.6,51.5,30.04,SW,222,2.3,2.3,72,0.00,CLR,OVC,0.00,WeatherDisplay:10.37,2013-02-06 00:47:00,
2013-02-05 19:52:00,60.8,51.0,30.04,SW,222,0.0,0.0,70,0.00,CLR,OVC,0.00,WeatherDisplay:10.37,2013-02-06 00:52:00,
2013-02-05 19:57:00,61.2,51.3,30.04,SW,222,0.0,0.0,70,0.00,CLR,OVC,0.00,WeatherDisplay:10.37,2013-02-06 00:57:00,
2013-02-05 20:02:00,61.4,51.5,30.04,SW,222,0.0,0.0,70,0.00,CLR,OVC,0.00,WeatherDisplay:10.37,2013-02-06 01:02:00,
2013-02-05 20:07:00,61.4,50.7,30.04,SW,222,0.0,0.0,68,0.00,CLR,OVC,0.00,WeatherDisplay:10.37,2013-02-06 01:07:00,
2013-02-05 20:12:00,61.5,50.8,30.04,SW,222,0.0,0.0,68,0.00,CLR,OVC,0.00,WeatherDisplay:10.37,2013-02-06 01:12:00,
2013-02-05 20:17:00,61.6,51.3,30.05,SW,222,0.0,0.0,69,0.00,CLR,OVC,0.00,WeatherDisplay:10.37,2013-02-06 01:17:00,
2013-02-05 20:22:00,61.5,51.2,30.05,SW,222,0.0,0.0,69,0.00,CLR,OVC,0.00,WeatherDisplay:10.37,2013-02-06 01:22:00,
2013-02-05 20:27:00,61.4,51.5,30.05,SW,222,0.0,0.0,70,0.00,CLR,OVC,0.00,WeatherDisplay:10.37,2013-02-06 01:27:00,
2013-02-05 20:32:00,61.1,51.6,30.05,SW,222,0.0,0.0,71,0.00,CLR,OVC,0.00,WeatherDisplay:10.37,2013-02-06 01:32:00,
2013-02-05 20:37:00,60.8,51.7,30.05,SW,222,0.0,0.0,72,0.00,CLR,OVC,0.00,WeatherDisplay:10.37,2013-02-06 01:37:00,
2013-02-05 20:42:00,60.5,51.4,30.05,SW,222,0.0,0.0,72,0.00,CLR,OVC,0.00,WeatherDisplay:10.37,2013-02-06 01:42:00,
2013-02-05 20:47:00,60.3,50.9,30.05,SW,222,0.0,0.0,71,0.00,CLR,OVC,0.00,WeatherDisplay:10.37,2013-02-06 01:47:00,
2013-02-05 20:52:00,60.0,50.9,30.05,SW,222,0.0,0.0,72,0.00,CLR,OVC,0.00,WeatherDisplay:10.37,2013-02-06 01:52:00,
2013-02-05 20:57:00,59.8,51.1,30.05,SW,222,0.0,0.0,73,0.00,CLR,OVC,0.00,WeatherDisplay:10.37,2013-02-06 01:57:00,
2013-02-05 21:02:00,59.6,50.9,30.05,SW,222,0.0,0.0,73,0.00,CLR,OVC,0.00,WeatherDisplay:10.37,2013-02-06 02:02:00,
2013-02-05 21:07:00,59.4,51.1,30.05,SW,222,0.0,0.0,74,0.00,CLR,OVC,0.00,WeatherDisplay:10.37,2013-02-06 02:07:00,
2013-02-05 21:12:00,59.3,51.0,30.05,SW,222,0.0,0.0,74,0.00,CLR,OVC,0.00,WeatherDisplay:10.37,2013-02-06 02:12:00,
2013-02-05 21:17:00,59.0,50.7,30.06,SW,227,1.1,1.1,74,0.00,CLR,OVC,0.00,WeatherDisplay:10.37,2013-02-06 02:17:00,
2013-02-05 21:22:00,58.7,50.4,30.06,SW,228,0.0,0.0,74,0.00,CLR,OVC,0.00,WeatherDisplay:10.37,2013-02-06 02:22:00,
2013-02-05 21:27:00,58.7,50.4,30.06,SW,230,0.0,0.0,74,0.00,CLR,OVC,0.00,WeatherDisplay:10.37,2013-02-06 02:27:00,
2013-02-05 21:32:00,58.7,50.8,30.06,SW,229,0.0,0.0,75,0.00,CLR,OVC,0.00,WeatherDisplay:10.37,2013-02-06 02:32:00,
2013-02-05 21:37:00,58.6,50.7,30.06,SW,228,1.1,1.1,75,0.00,CLR,OVC,0.00,WeatherDisplay:10.37,2013-02-06 02:37:00,
2013-02-05 21:42:00,58.6,50.7,30.07,SW,228,0.0,0.0,75,0.00,CLR,OVC,0.00,WeatherDisplay:10.37,2013-02-06 02:42:00,
2013-02-05 21:47:00,58.4,50.5,30.07,SW,229,0.0,0.0,75,0.00,CLR,OVC,0.00,WeatherDisplay:10.37,2013-02-06 02:47:00,
2013-02-05 21:52:00,58.3,50.4,30.07,SW,227,0.0,0.0,75,0.00,CLR,OVC,0.00,WeatherDisplay:10.37,2013-02-06 02:52:00,
2013-02-05 21:57:00,58.1,50.6,30.07,SW,227,0.0,0.0,76,0.00,CLR,OVC,0.00,WeatherDisplay:10.37,2013-02-06 02:57:00,
2013-02-05 22:02:00,58.0,50.5,30.07,SW,227,0.0,0.0,76,0.00,CLR,OVC,0.00,WeatherDisplay:10.37,2013-02-06 03:02:00,
2013-02-05 22:07:00,57.9,50.7,30.07,SW,228,0.0,0.0,77,0.00,CLR,OVC,0.00,WeatherDisplay:10.37,2013-02-06 03:07:00,
2013-02-05 22:12:00,57.8,50.6,30.07,SW,228,0.0,0.0,77,0.00,CLR,OVC,0.00,WeatherDisplay:10.37,2013-02-06 03:12:00,
2013-02-05 22:17:00,57.8,51.0,30.07,SW,227,0.0,0.0,78,0.00,CLR,OVC,0.00,WeatherDisplay:10.37,2013-02-06 03:17:00,
2013-02-05 22:22:00,57.9,51.1,30.07,SW,227,0.0,0.0,78,0.00,CLR,OVC,0.00,WeatherDisplay:10.37,2013-02-06 03:22:00,
2013-02-05 22:27:00,57.7,50.9,30.08,SW,228,0.0,0.0,78,0.00,CLR,OVC,0.00,WeatherDisplay:10.37,2013-02-06 03:27:00,
2013-02-05 22:32:00,57.7,51.2,30.08,SW,227,0.0,0.0,79,0.00,CLR,OVC,0.00,WeatherDisplay:10.37,2013-02-06 03:32:00,
2013-02-05 22:37:00,57.7,51.2,30.07,SW,227,0.0,0.0,79,0.00,CLR,OVC,0.00,WeatherDisplay:10.37,2013-02-06 03:37:00,
2013-02-05 22:42:00,57.7,51.2,30.07,SW,228,0.0,0.0,79,0.00,CLR,OVC,0.00,WeatherDisplay:10.37,2013-02-06 03:42:00,
2013-02-05 22:47:00,57.7,51.2,30.08,SW,227,0.0,0.0,79,0.00,CLR,OVC,0.00,WeatherDisplay:10.37,2013-02-06 03:47:00,
2013-02-05 22:52:00,57.7,51.2,30.08,SW,227,0.0,0.0,79,0.00,CLR,OVC,0.00,WeatherDisplay:10.37,2013-02-06 03:52:00,
2013-02-05 22:57:00,57.7,51.2,30.08,SW,228,0.0,0.0,79,0.00,CLR,OVC,0.00,WeatherDisplay:10.37,2013-02-06 03:57:00,
2013-02-05 23:02:00,57.7,51.2,30.08,SW,228,0.0,0.0,79,0.00,CLR,OVC,0.00,WeatherDisplay:10.37,2013-02-06 04:02:00,
2013-02-05 23:07:00,57.7,51.2,30.08,SW,228,0.0,0.0,79,0.00,CLR,OVC,0.00,WeatherDisplay:10.37,2013-02-06 04:07:00,
2013-02-05 23:12:00,57.8,51.7,30.08,SW,228,0.0,0.0,80,0.00,CLR,OVC,0.00,WeatherDisplay:10.37,2013-02-06 04:12:00,
2013-02-05 23:17:00,57.8,51.7,30.08,SW,228,0.0,0.0,80,0.00,CLR,OVC,0.00,WeatherDisplay:10.37,2013-02-06 04:17:00,
2013-02-05 23:22:00,57.9,51.8,30.08,SW,228,0.0,0.0,80,0.00,CLR,OVC,0.00,WeatherDisplay:10.37,2013-02-06 04:22:00,
2013-02-05 23:27:00,57.9,51.8,30.08,SW,229,0.0,0.0,80,0.00,CLR,OVC,0.00,WeatherDisplay:10.37,2013-02-06 04:27:00,
2013-02-05 23:32:00,57.9,52.1,30.07,SW,227,1.1,1.1,81,0.00,CLR,OVC,0.00,WeatherDisplay:10.37,2013-02-06 04:32:00,
2013-02-05 23:37:00,57.7,51.9,30.07,SW,227,0.0,0.0,81,0.00,CLR,OVC,0.00,WeatherDisplay:10.37,2013-02-06 04:37:00,
2013-02-05 23:42:00,57.6,51.8,30.07,SW,227,0.0,0.0,81,0.00,CLR,OVC,0.00,WeatherDisplay:10.37,2013-02-06 04:42:00,
2013-02-05 23:47:00,57.7,51.9,30.07,SW,228,0.0,0.0,81,0.00,CLR,OVC,0.00,WeatherDisplay:10.37,2013-02-06 04:47:00,
2013-02-05 23:52:00,57.8,52.0,30.07,SW,227,0.0,0.0,81,0.00,CLR,OVC,0.00,WeatherDisplay:10.37,2013-02-06 04:52:00,
2013-02-05 23:57:00,57.8,52.0,30.07,SW,227,0.0,0.0,81,0.00,CLR,OVC,0.00,WeatherDisplay:10.37,2013-02-06 04:57:00,